Tracking 31027 objects as of 19-Jul-2025
HD Live streaming from Space Station
objects crossing your sky now

COSMOS 382

Track COSMOS 382 now!
10-day predictions
COSMOS 382 is classified as:


NORAD ID: 4786
Int'l Code: 1970-103A
Perigee: 2,449.8 km
Apogee: 5,219.8 km
Inclination: 55.9 °
Period: 171.0 minutes
Semi major axis: 10205 km
RCS: 19.6936 m2 (large)
Launch date: December 2, 1970
Source: Commonwealth of Independent States (former USSR) (CIS)
Launch site: TYURATAM MISSILE AND SPACE COMPLEX (TTMTR)
Your satellite tracking list
FLOCK 3S 1
Track 1 satellite(s)




NASA's NSSDC Master Catalog

Two Line Element Set (TLE):
1 04786U 70103A   25199.50927668 -.00000025  00000-0  00000-0 0  9993
2 04786  55.8720 310.7057 1357100 149.6741 325.2117  8.42042060680467
Source of the keplerian elements: AFSPC